User: anonymous   Login
Location: Wawayanda State Park
(41.1833°N, 74.4333°W)
Time: 21:11:26
(UTC-04:00)
Language:

RESURS DK-1 - Orbit

View from above orbital plane
View from above orbital plane
View from above satellite
View from above satellite

Ground track
Ground track

The orbit data is extracted from the following two-line orbital elements,

1 29228U 06021A   15247.55695027  .00000263  00000-0  27708-4 0  9999
2 29228  69.9400 315.3458 0007907 262.9556  97.0712 15.01584035510262
Epoch (UTC): 04 September 2015 13:22:00
Eccentricity: 0.0007907
inclination: 69.9400°
perigee height: 556 km
apogee height: 567 km
right ascension of ascending node: 315.3458°
argument of perigee: 262.9556°
revolutions per day: 15.01584035
mean anomaly at epoch: 97.0712°
orbit number at epoch: 51026

The dashed part of the orbit path shows where the satellite is in the earth's shadow,  

DLR